Home   Weather   Potosi   Past weeks

Flag for Bolivia Past Weather in Potosi, Bolivia — Yesterday and Last 2 Weeks

Now
63 °F

Passing clouds.


Feels Like: 63 °F
Forecast: 33 / 60 °F
Wind: 3 mph from East

Location: Tarija Airport

Current Time: Apr 23, 2017 at 11:25:17 pm

Latest Report: Apr 23, 2017 at 11:00 pm


Visibility: N/A

Pressure: 30.07 "Hg (18.79 "Hg at 3993m altitude)

Humidity: 77%

Dew Point: 55 °F

Location of PotosiLocation

Past Weather in Potosi — Graph

°F

Potosi Temperature Yesterday

Maximum temperature yesterday: 68 °F (at 1:00 pm)
Minimum temperature yesterday: 57 °F (at 6:00 am)
Average temperature yesterday: 62 °F

High & Low Weather Summary for the Past Weeks

 TemperatureHumidityPressure
High84 °F (Apr 9, 2:00 pm)100% (Apr 12, 6:00 am)30.36 "Hg (Apr 12, 6:00 am)
Low41 °F (Apr 12, 6:00 am)25% (Apr 11, 5:00 pm)29.83 "Hg (Apr 9, 3:00 pm)
Average62 °F70%30.11 "Hg
* Reported Apr 9 6:00 am — Apr 23 10:00 pm, Potosi, Weather by CustomWeather, © 2017

Note: Actual official high and low records may vary slightly from our data, if they occured in-between our weather recording intervals... More about our weather records

Advertising

Potosi Weather History for the Previous 24 Hours

Scroll right to see more
 ConditionsComfort  
Time TempWeatherWind HumidityBarometerVisibility
10:00 pm
Sun, Apr 23
63 °FPassing clouds.5 mph77%30.07 "HgN/A
9:00 pm64 °FPassing clouds.6 mph68%30.04 "HgN/A
8:00 pm64 °FPassing clouds.7 mph68%30.04 "HgN/A
7:00 pm64 °FPassing clouds.12 mph68%30.01 "HgN/A
6:00 pm66 °FPassing clouds.13 mph64%29.98 "HgN/A
5:00 pm70 °FPartly sunny.10 mph60%29.98 "HgN/A
4:00 pm72 °FBroken clouds.10 mph57%29.95 "HgN/A
3:00 pm73 °FBroken clouds.8 mph53%29.98 "HgN/A
2:00 pm72 °FBroken clouds.9 mph57%30.01 "HgN/A
1:00 pm72 °FBroken clouds.6 mph57%30.04 "HgN/A
12:00 pm70 °FScattered clouds.6 mph57%30.09 "HgN/A
11:00 am66 °FPartly sunny.5 mph64%30.12 "HgN/A
10:00 am64 °FPartly sunny.No wind68%30.15 "HgN/A
9:00 am61 °FPartly sunny.No wind77%30.18 "HgN/A
8:00 am59 °FPartly sunny.3 mph88%30.18 "HgN/A
7:00 am57 °FPartly sunny.No wind88%30.15 "HgN/A
Weather by CustomWeather, © 2017

See weather overviewHow to use our weather pages